Regional Weather Roundup
Issued by NWS

Home | Current Version | Previous Version | Text Only | Print | Product List | Glossary On
Versions: 1 2 3 4 5 6 7 8 9 10 11 12 13 14 15 16 17 18 19 20 21 22 23 24 25 26 27 28 29 30 31 32 33 34 35 36 37 38 39 40 41 42 43 44 45 46 47 48 49 50
000
ASUS42 KKEY 041310
RWRKEY

FLORIDA REGIONAL WEATHER ROUNDUP FOR THE FLORIDA KEYS
NATIONAL WEATHER SERVICE KEY WEST FLORIDA
900 AM EDT FRI SEP 04 2015

...SOUTH FLORIDA AND THE KEYS...

CITY           SKY/WX    TMP DP  RH WIND       PRES   REMARKS
FORT MYERS     SUNNY     85  77  77 N8        29.98R HX  95
SW REGIONAL AP SUNNY     85  76  74 N6        29.98R HX  94
NAPLES         SUNNY     86  75  70 N6        29.98R HX  95
MIAMI          MOSUNNY   84  75  74 NW5       29.98R HX  92
WEST KENDALL   SUNNY     80  75  84 CALM      29.98S
HOMESTEAD      SUNNY     83  73  72 NW3       29.98R
MARATHON       CLOUDY    88  77  69 CALM      29.98R HX 100
BOCA CHICA NAS PTSUNNY   85  75  72 W3        29.99R HX  93
KEY WEST INTL  MOSUNNY   85  75  72 CALM      29.99R HX  93

...INTERNATIONAL WEATHER...

CITY           SKY/WX    TMP DP  RH WIND       PRES   REMARKS
NASSAU BAHAMAS MOSUNNY   84  73  70 W3        29.98R HX  91
CANCUN MEXICO  MOSUNNY   84  79  84 E3        29.95R HX  96
COZUMEL MEXICO MOSUNNY   75  75 100 CALM      29.94R

ADJACENT COASTAL WATERS...

STATION/POSITION TIME  SKY/WX   TEMP    WIND        PRES    WAVE
                                AIR SEA DIR/SP/G            HT/PER
                 (UTC)          (F)     (DEG/KT/KT) (MB)    (FT/S)
PULASKI SHOAL LI 1200                                 N/A
SAND KEY         1250            86        CALM     1015.5R
SOMBRERO KEY     NOT AVBL
LONG KEY         1200            85 89  250/  2/  3 1015.7R
MOLASSES REEF    1300            85 87  250/  4/  5 1015.3R
FOWEY ROCKS      1300            83 87  280/  6/  6 1015.1R

$$


USA.gov is the U.S. government's official web portal to all federal, state and local government web resources and services.